• In Belarus
  • List of Countries
  • For 7 days
  • Water Temperature
  • Satellite Maps
  • Weather Map
  • Weather Widgets
  • user-avatar
    Login

    Hourly Weather Trujillo

    Today, 24 September, Monday

    Time Temperature Precipitation Wind Pressure Humidity
    00:00 +26°C° 0 mm 4 mps 759 mmHg 98%
    01:00 +26°C° 0 mm 4 mps 758 mmHg 99%
    02:00 +25°C° 0 mm 4 mps 758 mmHg 99%
    03:00 +25°C° 0 mm 3 mps 758 mmHg 99%
    04:00 +25°C° 0 mm 3 mps 758 mmHg 99%
    05:00 +25°C° 0 mm 3 mps 758 mmHg 99%
    06:00 +24°C° 0 mm 3 mps 759 mmHg 98%
    07:00 +27°C° 0 mm 2 mps 759 mmHg 84%
    08:00 +30°C° 0 mm 2 mps 759 mmHg 70%
    09:00 +34°C° 0 mm 2 mps 759 mmHg 56%
    10:00 +35°C° 0 mm 3 mps 759 mmHg 50%
    11:00 +36°C° 0 mm 3 mps 759 mmHg 44%
    12:00 +38°C° 0 mm 4 mps 758 mmHg 38%
    13:00 +36°C° 0.1 mm 4 mps 758 mmHg 47%
    14:00 +35°C° 0.1 mm 5 mps 757 mmHg 57%
    15:00 +34°C° 0.1 mm 5 mps 757 mmHg 66%
    16:00 +32°C° 1.1 mm 5 mps 757 mmHg 76%
    17:00 +29°C° 1.1 mm 5 mps 758 mmHg 87%
    18:00 +27°C° 1.1 mm 5 mps 758 mmHg 97%
    19:00 +27°C° 0.1 mm 5 mps 758 mmHg 98%
    20:00 +27°C° 0.1 mm 5 mps 759 mmHg 98%
    21:00 +26°C° 0.1 mm 4 mps 760 mmHg 99%
    22:00 +26°C° 0 mm 4 mps 760 mmHg 99%
    23:00 +26°C° 0 mm 4 mps 759 mmHg 99%

    Tomorrow, 25 September, Tuesday

    Time Temperature Precipitation Wind Pressure Humidity
    00:00 +26°C° 0 mm 4 mps 759 mmHg 99%
    01:00 +25°C° 0 mm 3 mps 759 mmHg 99%
    02:00 +25°C° 0 mm 3 mps 759 mmHg 99%
    03:00 +25°C° 0 mm 3 mps 758 mmHg 99%
    04:00 +24°C° 0 mm 3 mps 759 mmHg 99%
    05:00 +24°C° 0 mm 3 mps 759 mmHg 98%
    06:00 +24°C° 0 mm 3 mps 759 mmHg 98%
    07:00 +27°C° 0 mm 2 mps 759 mmHg 84%
    08:00 +30°C° 0 mm 2 mps 760 mmHg 70%
    09:00 +35°C° 0 mm 2 mps 760 mmHg 56%
    10:00 +35°C° 0.2 mm 3 mps 760 mmHg 62%
    11:00 +34°C° 0.2 mm 3 mps 759 mmHg 68%
    12:00 +34°C° 0.2 mm 4 mps 759 mmHg 74%
    13:00 +33°C° 1.4 mm 4 mps 758 mmHg 81%
    14:00 +32°C° 1.4 mm 5 mps 758 mmHg 87%
    15:00 +32°C° 1.4 mm 5 mps 757 mmHg 93%
    16:00 +30°C° 0.6 mm 5 mps 757 mmHg 95%
    17:00 +28°C° 0.6 mm 5 mps 758 mmHg 96%
    18:00 +27°C° 0.6 mm 5 mps 758 mmHg 98%
    19:00 +27°C° 0.1 mm 4 mps 759 mmHg 98%
    20:00 +27°C° 0.1 mm 4 mps 759 mmHg 98%
    21:00 +27°C° 0.1 mm 4 mps 760 mmHg 98%
    22:00 +26°C° 0.1 mm 4 mps 760 mmHg 98%
    23:00 +26°C° 0.1 mm 4 mps 760 mmHg 98%

    Day after tomorrow, 26 September, Wednesday

    Time Temperature Precipitation Wind Pressure Humidity
    00:00 +26°C° 0.1 mm 3 mps 759 mmHg 98%
    01:00 +26°C° 0.1 mm 3 mps 759 mmHg 98%
    02:00 +25°C° 0.1 mm 3 mps 759 mmHg 98%
    03:00 +25°C° 0.1 mm 3 mps 758 mmHg 98%
    04:00 +25°C° 0 mm 3 mps 758 mmHg 98%
    05:00 +25°C° 0 mm 3 mps 759 mmHg 98%
    06:00 +25°C° 0 mm 3 mps 759 mmHg 98%
    07:00 +28°C° 0 mm 3 mps 759 mmHg 87%
    08:00 +30°C° 0 mm 3 mps 760 mmHg 75%
    09:00 +34°C° 0 mm 3 mps 760 mmHg 63%
    10:00 +34°C° 0.1 mm 4 mps 760 mmHg 65%
    11:00 +35°C° 0.1 mm 4 mps 759 mmHg 66%
    12:00 +35°C° 0.1 mm 5 mps 759 mmHg 68%
    13:00 +35°C° 0.4 mm 5 mps 758 mmHg 72%
    14:00 +34°C° 0.4 mm 5 mps 757 mmHg 77%
    15:00 +33°C° 0.4 mm 5 mps 757 mmHg 82%
    16:00 +32°C° 0.3 mm 5 mps 757 mmHg 86%
    17:00 +29°C° 0.3 mm 5 mps 757 mmHg 90%
    18:00 +28°C° 0.3 mm 5 mps 758 mmHg 95%
    19:00 +27°C° 0.1 mm 5 mps 758 mmHg 95%
    20:00 +27°C° 0.1 mm 5 mps 759 mmHg 96%
    21:00 +27°C° 0.1 mm 5 mps 759 mmHg 97%
    22:00 +26°C° 0 mm 5 mps 759 mmHg 97%
    23:00 +26°C° 0 mm 4 mps 759 mmHg 97%

    27 September, Thursday

    Time Temperature Precipitation Wind Pressure Humidity
    00:00 +26°C° 0 mm 4 mps 759 mmHg 97%
    01:00 +26°C° 0 mm 4 mps 758 mmHg 97%
    02:00 +26°C° 0 mm 4 mps 758 mmHg 97%
    03:00 +26°C° 0 mm 3 mps 758 mmHg 97%
    04:00 +25°C° 0 mm 3 mps 758 mmHg 97%
    05:00 +25°C° 0 mm 3 mps 758 mmHg 97%
    06:00 +25°C° 0 mm 3 mps 758 mmHg 96%
    07:00 +28°C° 0 mm 3 mps 759 mmHg 84%
    08:00 +31°C° 0 mm 3 mps 759 mmHg 72%
    09:00 +35°C° 0 mm 3 mps 760 mmHg 60%
    10:00 +35°C° 0 mm 4 mps 759 mmHg 58%
    11:00 +36°C° 0 mm 4 mps 759 mmHg 55%
    12:00 +37°C° 0 mm 5 mps 758 mmHg 52%
    13:00 +35°C° 0.3 mm 5 mps 758 mmHg 63%
    14:00 +34°C° 0.3 mm 5 mps 757 mmHg 73%
    15:00 +33°C° 0.3 mm 6 mps 756 mmHg 84%
    16:00 +32°C° 0.2 mm 5 mps 757 mmHg 88%
    17:00 +29°C° 0.2 mm 5 mps 757 mmHg 93%
    18:00 +27°C° 0.2 mm 5 mps 758 mmHg 97%
    19:00 +27°C° 0.1 mm 5 mps 759 mmHg 98%
    20:00 +27°C° 0.1 mm 5 mps 759 mmHg 98%
    21:00 +26°C° 0.1 mm 5 mps 760 mmHg 98%
    22:00 +26°C° 0 mm 4 mps 760 mmHg 98%
    23:00 +26°C° 0 mm 4 mps 759 mmHg 98%

    28 September, Friday

    Time Temperature Precipitation Wind Pressure Humidity
    00:00 +26°C° 0 mm 3 mps 759 mmHg 98%
    01:00 +25°C° 0 mm 3 mps 759 mmHg 98%
    02:00 +25°C° 0 mm 3 mps 759 mmHg 98%
    03:00 +25°C° 0 mm 3 mps 758 mmHg 98%
    04:00 +25°C° 0 mm 3 mps 759 mmHg 98%
    05:00 +25°C° 0 mm 3 mps 759 mmHg 98%
    06:00 +25°C° 0 mm 3 mps 759 mmHg 98%
    07:00 +27°C° 0 mm 3 mps 760 mmHg 86%
    08:00 +30°C° 0 mm 3 mps 760 mmHg 74%
    09:00 +34°C° 0 mm 2 mps 761 mmHg 62%
    10:00 +34°C° 0.2 mm 3 mps 760 mmHg 67%
    11:00 +34°C° 0.2 mm 4 mps 759 mmHg 72%
    12:00 +35°C° 0.2 mm 4 mps 759 mmHg 77%
    13:00 +34°C° 0.6 mm 4 mps 758 mmHg 82%
    14:00 +33°C° 0.6 mm 5 mps 758 mmHg 87%
    15:00 +32°C° 0.6 mm 5 mps 757 mmHg 91%
    16:00 +30°C° 0.6 mm 5 mps 758 mmHg 94%
    17:00 +29°C° 0.6 mm 5 mps 758 mmHg 96%
    18:00 +27°C° 0.6 mm 4 mps 759 mmHg 98%
    19:00 +27°C° 0.6 mm 4 mps 759 mmHg 98%
    20:00 +27°C° 0.6 mm 4 mps 760 mmHg 99%
    21:00 +27°C° 0.6 mm 4 mps 760 mmHg 99%
    22:00 +26°C° 0.1 mm 4 mps 760 mmHg 99%
    23:00 +26°C° 0.1 mm 3 mps 760 mmHg 99%

    29 September, Saturday

    Time Temperature Precipitation Wind Pressure Humidity
    00:00 +26°C° 0.1 mm 3 mps 759 mmHg 99%
    01:00 +26°C° 0 mm 3 mps 759 mmHg 99%
    02:00 +26°C° 0 mm 2 mps 759 mmHg 99%
    03:00 +26°C° 0 mm 2 mps 759 mmHg 99%
    04:00 +26°C° 0 mm 2 mps 759 mmHg 99%
    05:00 +25°C° 0 mm 2 mps 759 mmHg 99%
    06:00 +25°C° 0 mm 2 mps 760 mmHg 98%
    07:00 +28°C° 0.1 mm 2 mps 760 mmHg 88%
    08:00 +31°C° 0.1 mm 2 mps 760 mmHg 77%
    09:00 +34°C° 0.1 mm 2 mps 761 mmHg 67%
    10:00 +35°C° 0.3 mm 2 mps 760 mmHg 70%
    11:00 +35°C° 0.3 mm 3 mps 759 mmHg 72%
    12:00 +35°C° 0.3 mm 3 mps 759 mmHg 75%
    13:00 +34°C° 0.4 mm 4 mps 758 mmHg 78%
    14:00 +34°C° 0.4 mm 4 mps 758 mmHg 82%
    15:00 +33°C° 0.4 mm 5 mps 757 mmHg 85%
    16:00 +30°C° 0.3 mm 5 mps 758 mmHg 89%
    17:00 +29°C° 0.3 mm 4 mps 758 mmHg 93%
    18:00 +27°C° 0.3 mm 4 mps 759 mmHg 97%
    19:00 +27°C° 0.1 mm 4 mps 759 mmHg 98%
    20:00 +27°C° 0.1 mm 4 mps 760 mmHg 98%
    21:00 +27°C° 0.1 mm 3 mps 760 mmHg 99%
    22:00 +26°C° 0.1 mm 3 mps 760 mmHg 99%
    23:00 +26°C° 0.1 mm 2 mps 760 mmHg 99%
    Show more